Regional Weather Roundup
Issued by NWS

Home | Current Version | Previous Version | Graphics & Text | Print | Product List | Glossary On
Versions: 1 2 3 4 5 6 7 8 9 10 11 12 13 14 15 16 17 18 19 20 21 22 23 24 25 26 27 28 29 30 31 32 33 34 35 36 37 38 39 40 41 42 43 44 45 46 47 48 49 50
000
ASUS43 KMKX 011821
RWRWI

WISCONSIN REGIONAL WEATHER ROUNDUP
NATIONAL WEATHER SERVICE MILWAUKEE/SULLIVAN WI
1200 PM CST SUN FEB 01 2015

NOTE: "FAIR" INDICATES FEW OR NO CLOUDS BELOW 12,000 FEET WITH NO
SIGNIFICANT WEATHER AND/OR OBSTRUCTIONS TO VISIBILITY.

WIZ001-002-006>008-014>016-023>028-011900-
NORTHWEST WISCONSIN

CITY           SKY/WX    TMP DP  RH WIND       PRES   REMARKS
SUPERIOR ARPT  MOSUNNY   11  -5  48 NE15      30.39S WCI  -6
6HR MIN TEMP:   7; 6HR MAX TEMP:  11;

ASHLAND        CLOUDY    10   4  76 N21       30.34S HAZE    WCI  -9
6HR MIN TEMP:   8; 6HR MAX TEMP:  10; 6HR PCP: TRACE;

HAYWARD        CLOUDY    11   2  67 NE17      30.26F HAZE    WCI  -6
6HR MIN TEMP:   7; 6HR MAX TEMP:  11; 6HR PCP: TRACE;

SIREN          CLOUDY    13   3  62 NE14G21   30.28F WCI  -2
6HR MIN TEMP:  10; 6HR MAX TEMP:  13;

CUMBERLAND     CLOUDY    12   1  62 NE15      30.22F WCI  -4
RICE LAKE      CLOUDY    14   1  57 NE20      30.23F WCI  -4
6HR MIN TEMP:   9; 6HR MAX TEMP:  14;

CHETEK         CLOUDY    12   0  58 NE8       30.22F WCI   1
6HR MIN TEMP:   8; 6HR MAX TEMP:  12;

LADYSMITH      CLOUDY    12   1  62 NE16G22   30.23F WCI  -5
6HR MIN TEMP:   8; 6HR MAX TEMP:  12;

EAU CLAIRE     CLOUDY    13   0  56 NE15      30.20F WCI  -3
6HR MIN TEMP:  11; 6HR MAX TEMP:  13; 6HR PCP: TRACE;

MENOMONIE      CLOUDY    14   1  56 N17       30.21F WCI  -3
6HR MIN TEMP:  12; 6HR MAX TEMP:  14;

NEW RICHMOND   CLOUDY    14   3  60 NE16G22   30.23F WCI  -2
6HR MIN TEMP:  10; 6HR MAX TEMP:  14;

OSCEOLA        CLOUDY    15   4  61 NE13G21   30.29F WCI   1
6HR MIN TEMP:  11; 6HR MAX TEMP:  15;

$$

WIZ003>005-009-010-017-018-011900-
NORTH CENTRAL WISCONSIN

CITY           SKY/WX    TMP DP  RH WIND       PRES   REMARKS
MANITOWISH WTR CLOUDY     8  -1  66 N9G20     30.20F WCI  -6
6HR MIN TEMP:   3; 6HR MAX TEMP:   8;

ARBOR VITAE    CLOUDY    11   2  65 NE12      30.19F WCI  -3
6HR MIN TEMP:   5; 6HR MAX TEMP:  11;

WOODRUFF       CLOUDY    11   2  65 NE12      30.19F WCI  -3
6HR MIN TEMP:   5; 6HR MAX TEMP:  11;

RHINELANDER    CLOUDY     8  -1  66 NE13G21   30.17F WCI  -8
6HR MIN TEMP:   5; 6HR MAX TEMP:   8;

EAGLE RIVER    CLOUDY     9  -1  63 NE14      30.18F WCI  -8
6HR MIN TEMP:   4; 6HR MAX TEMP:   9;

LAND O LAKES   CLOUDY     9   0  69 N10       30.20F WCI  -6
6HR MIN TEMP:   3; 6HR MAX TEMP:   9;

PHILLIPS       CLOUDY     8  -1  67 NE13G23   30.20F WCI  -8
6HR MIN TEMP:   4; 6HR MAX TEMP:   8;

TOMAHAWK       CLOUDY    10   0  61 NE9G18    30.18F WCI  -2
6HR MIN TEMP:   6; 6HR MAX TEMP:  10;

MEDFORD        CLOUDY    10   0  63 NE15G25   30.14F WCI  -6
6HR MIN TEMP:   8; 6HR MAX TEMP:  10;

MERRILL        CLOUDY    11   1  64 NE16      30.17F WCI  -5
6HR MIN TEMP:   8; 6HR MAX TEMP:  11;

$$

WIZ029-030-035-036-043>047-011900-
CENTRAL WISCONSIN

CITY           SKY/WX    TMP DP  RH WIND       PRES   REMARKS
WAUSAU         CLOUDY    12   2  64 NE13G21   30.14F WCI  -3
6HR MIN TEMP:  10; 6HR MAX TEMP:  12;

MOSINEE        MOSUNNY   12   3  67 NE18      30.14  WCI  -5
MARSHFIELD     CLOUDY    13   2  61 NE18G26   30.12F WCI  -4
6HR MIN TEMP:  10; 6HR MAX TEMP:  13; 6HR PCP: TRACE;

STEVENS POINT  CLOUDY    10   1  66 NE20G25   30.14F WCI  -8
6HR MIN TEMP:   9; 6HR MAX TEMP:  10;

WAUPACA        LGT SNOW  14   6  69 N15G24    30.14F WCI  -1
6HR MIN TEMP:  14; 6HR MAX TEMP:  15;

WAUTOMA        LGT SNOW  12   7  79 NE16G28   30.10F WCI  -4
6HR MIN TEMP:  12; 6HR MAX TEMP:  14; 6HR PCP: TRACE;

WISC RAPIDS    MIX PCPN  13   1  59 NE16G24   30.14F WCI  -3
6HR MIN TEMP:  11; 6HR MAX TEMP:  13; 6HR PCP: TRACE;

CAMP DOUGLAS   LGT SNOW  14  10  85 NE10G21   30.11F BLWGSNOWWCI   1
                                      6HR PCP:  0.01;

$$

WIZ011>013-019>022-031-037>040-048>050-011900-
NORTHEAST WISCONSIN

CITY           SKY/WX    TMP DP  RH WIND       PRES   REMARKS
ANTIGO         CLOUDY    10   1  68 NE17      30.14F WCI  -8
6HR MIN TEMP:   7; 6HR MAX TEMP:  10;

SHAWANO        CLOUDY    13   2  61 NE15G24   30.21F WCI  -3
6HR MIN TEMP:  13; 6HR MAX TEMP:  14;

OCONTO         CLOUDY     9   0  65 NE10G23   30.23F WCI  -5
6HR MIN TEMP:   9; 6HR MAX TEMP:  13;

STURGEON BAY   CLOUDY    10   1  67 NE21G29   30.20F WCI  -9
6HR MIN TEMP:   9; 6HR MAX TEMP:  12;

GREEN BAY      MIX PCPN  10   3  73 NE31G39   30.17F WCI -13
6HR MIN TEMP:  10; 6HR MAX TEMP:  14; 6HR PCP: TRACE;

MANITOWOC      LGT SNOW  18  16  93 NE18      30.10F VSB 3/4 WCI   2
6HR MIN TEMP:  17; 6HR MAX TEMP:  20; 6HR PCP:  0.01;

APPLETON       LGT SNOW  10   5  79 NE24G32   30.12F WCI -10
CLINTONVILLE   CLOUDY    12   0  57 NE18G29   30.18F WCI  -5
OSHKOSH        HVY SNOW  11   6  81 NE28G40   30.09F VSB 1/4 WCI -10
6HR MIN TEMP:  11; 6HR MAX TEMP:  14; 6HR PCP: TRACE;

$$

WIZ032>034-041-042-053>061-011900-
SOUTHWEST WISCONSIN

CITY           SKY/WX    TMP DP  RH WIND       PRES   REMARKS
LA CROSSE      LGT SNOW  17   9  70 NE8       30.12F WCI   7
6HR MIN TEMP:  16; 6HR MAX TEMP:  17; 6HR PCP:  0.08;

SPARTA         LGT SNOW  15  10  79 NE14G22   30.12F WCI   0
6HR MIN TEMP:  13; 6HR MAX TEMP:  15;

VIROQUA        CLOUDY    14  10  83 NE20      30.03F WCI  -3
6HR MIN TEMP:  13; 6HR MAX TEMP:  15;

BOSCOBEL       LGT SNOW  18  11  74 NE13G22   30.02F VSB 1   WCI   5
6HR MIN TEMP:  17; 6HR MAX TEMP:  19; 6HR PCP:  0.05;

PRAIRIE DU CHI MIX PCPN  19  12  76 N12G18    30.02F WCI   6
6HR MIN TEMP:  18; 6HR MAX TEMP:  20;

PLATTEVILLE    CLOUDY    19  16  89 N25G32    29.92S VSB 3/4 WCI   1
6HR MIN TEMP:  18; 6HR MAX TEMP:  20;

$$

WIZ056-057-062-063-064-067-068-011900-
SOUTH CENTRAL WISCONSIN

CITY           SKY/WX    TMP DP  RH WIND       PRES   REMARKS
REEDSBURG      LGT SNOW  15  10  83 NE17      30.05F WCI  -2
6HR MIN TEMP:  13; 6HR MAX TEMP:  15;

BARABOO/DELLS  LGT SNOW  14  10  82 NE17G25   30.04S VSB 1   WCI  -2
6HR MIN TEMP:  13; 6HR MAX TEMP:  14;

LONE ROCK      LGT SNOW  17  10  74 NE18G29   30.03F WCI   1
6HR MIN TEMP:  16; 6HR MAX TEMP:  18; 6HR PCP:  0.02;

MINERAL POINT  LGT SNOW  19  14  79 NE22G33   29.93S WCI   3
MADISON        SNOW      15  10  80 NE26G36   29.98F VSB 1/2 WCI  -4
6HR MIN TEMP:  15; 6HR MAX TEMP:  16; 6HR PCP:  0.11;

MIDDLETON      CLOUDY    18  13  79 NE28G33   29.98F WCI   0
6HR MIN TEMP:  17; 6HR MAX TEMP:  19;

WATERTOWN      LGT SNOW  20  17  86 NE22G32   29.96F WCI   4
6HR MIN TEMP:  19; 6HR MAX TEMP:  21;

MONROE         LGT SNOW  21  19  93 NE30G43   29.87F WCI   3
JANESVILLE     LGT SNOW  25  19  80 NE28G33   29.89F VSB 1   WCI   8
$$

WIZ051-052-058>065-066-070>072-011900-
SOUTHEAST WISCONSIN

CITY           SKY/WX    TMP DP  RH WIND       PRES   REMARKS
MILWAUKEE      SNOW      23  19  85 NE28G35   29.97F VSB 1/4 WCI   6
6HR MIN TEMP:  22; 6HR MAX TEMP:  25; 6HR PCP:  0.16;

WAUKESHA       NOT AVBL
MILWAUKEE/TIMM LGT SNOW  23  18  80 NE17G29   30.00F VSB 1   WCI   9
RACINE         SNOW      23  19  85 NE29G37   29.95F VSB 1/4 WCI   6
6HR MIN TEMP:  23; 6HR MAX TEMP:  26; 6HR PCP: TRACE;

BURLINGTON     LGT SNOW  22  19  87 NE15G23   29.92F WCI   9
6HR MIN TEMP:  21; 6HR MAX TEMP:  24;

KENOSHA        HVY SNOW  24  21  88 NE24G33   29.92F VSB 1/4 WCI   8
6HR MIN TEMP:  24; 6HR MAX TEMP:  27; 6HR PCP:  0.02;

FOND DU LAC    FOG       12   8  84 N26       30.08F VSB 1/2 WCI  -8
6HR MIN TEMP:  12; 6HR MAX TEMP:  16; 6HR PCP:  0.02;

SHEBOYGAN      SNOW      19  15  84 NE25      30.06F VSB 1/2 WCI   1
6HR MIN TEMP:  18; 6HR MAX TEMP:  21; 6HR PCP:  0.01;

WEST BEND      LGT SNOW  21  16  79 NE21G32   30.00F WCI   6
JUNEAU         LGT SNOW  15  11  85 N18G24    30.01F VSB 1   WCI  -2
6HR MIN TEMP:  15; 6HR MAX TEMP:  19;

$$

LSZ147-162-011900-
LAKE SUPERIOR

STATION/POSITION TIME  TEMP    WIND        PRES    WAVE
                       AIR SEA DIR/SP/G            HT/PER
                 (UTC) (F)     (DEG/KT/KT) (MB)    (FT/S)
DEVILS ISLAND    1800    8      40/ 16/ 19 1030.7F
PORT WING        1722   13      30/ 18/ 25 1028.8F
SAXON HARBOR     1700   14      60/ 10/ 13 1027.4F
$$

LMZ867-665-643>646-011900-
LAKE MICHIGAN

STATION/POSITION TIME  TEMP    WIND        PRES    WAVE



USA.gov is the U.S. government's official web portal to all federal, state and local government web resources and services.